1496750400.1,6480,18.75,73764.0,8.07,5.27,5.37,0,*49
1496750401.3,6481,18.81,73760.3,8.09,5.73,5.71,0,*45
1496750402.49,6482,18.81,73754.0,8.09,5.37,5.27,0,*45
1496750403.71,6483,18.81,73748.8,8.09,5.81,5.85,0,*41
1496750404.88,6484,18.75,73746.8,8.09,5.29,5.29,0,*42
1496750406.12,6485,18.81,73752.0,8.07,5.89,5.81,0,*45
1496750407.32,6486,18.75,73752.8,8.09,5.01,4.81,0,*49
1496750408.52,6487,18.75,73750.8,8.07,5.23,5.11,0,*4E
1496750409.7,6488,18.81,73754.5,8.07,5.45,5.37,0,*45
1496750410.92,6489,18.75,73752.3,8.07,4.63,4.53,0,*42
1496750412.15,6490,18.75,73754.8,8.07,5.27,5.27,0,*49
1496750413.37,6491,18.75,73748.3,8.07,5.15,5.27,0,*49
1496750414.53,6492,18.75,73748.0,8.05,5.41,5.41,0,*49
1496750415.73,6493,18.75,73750.5,8.07,5.37,5.33,0,*4E
1496750416.9,6494,18.75,73748.5,8.05,5.11,5.19,0,*47
1496750418.15,6495,18.81,73746.3,8.07,5.89,5.89,0,*4C
1496750419.34,6496,18.81,73744.8,8.09,6.17,6.07,0,*40
1496750420.53,6497,18.75,73744.8,8.07,6.07,6.07,0,*4E
1496750421.77,6498,18.81,73744.5,8.07,6.57,6.65,0,*40
1496750422.99,6499,18.75,73746.3,8.09,7.11,7.19,0,*46
1496750424.23,6500,18.75,73742.8,8.11,6.65,6.69,0,*4A
1496750425.45,6501,18.75,73742.0,8.15,7.15,7.27,0,*42
1496750426.64,6502,18.75,73742.0,8.15,7.11,7.05,0,*45
1496750427.8,6503,18.75,73746.0,8.19,6.75,6.83,0,*44
1496750429.03,6504,18.75,73742.0,8.19,6.13,6.13,0,*4A
1496750430.24,6505,18.75,73738.5,8.19,6.61,6.69,0,*43
1496750431.46,6506,18.75,73740.0,8.19,6.61,6.61,0,*48
1496750432.68,6507,18.75,73734.0,8.21,5.95,5.85,0,*43
1496750433.88,6508,18.81,73736.3,8.21,6.07,6.03,0,*49
1496750435.12,6509,18.75,73736.3,8.21,5.85,5.73,0,*45
1496750436.34,6510,18.75,73740.8,8.21,5.73,5.71,0,*46
1496750437.56,6511,18.75,73742.3,8.21,5.81,5.71,0,*4A
1496750438.75,6512,18.75,73742.8,8.21,5.37,5.37,0,*46
1496750439.97,6513,18.81,73762.3,8.21,6.17,6.11,0,*41
1496750441.21,6514,18.75,73762.0,8.21,6.39,6.39,0,*40
1496750442.38,6515,18.75,73764.0,8.23,6.07,5.95,0,*4B
1496750443.6,6516,18.75,73768.0,8.21,5.95,5.93,0,*44
1496750444.84,6517,18.75,73772.5,8.21,6.61,6.51,0,*40
1496750446.04,6518,18.75,73772.5,8.23,7.09,7.11,0,*47
1496750447.23,6519,18.81,73774.5,8.23,7.23,7.29,0,*45
1496750448.45,6520,18.75,73764.3,8.27,7.77,7.83,0,*4A
1496750449.62,6521,18.75,73768.0,8.31,7.51,7.51,0,*47
1496750450.79,6522,18.75,73774.3,8.31,7.09,7.09,0,*44
1496750451.95,6523,18.75,73770.5,8.31,7.45,7.45,0,*45
1496750453.12,6524,18.75,73774.3,8.31,7.51,7.55,0,*46
1496750454.28,6525,18.75,73772.3,8.39,7.59,7.59,0,*4B
1496750455.48,6526,18.75,73770.3,8.41,7.37,7.41,0,*46
1496750456.72,6527,18.75,73768.5,8.41,7.83,7.87,0,*42
1496750457.95,6528,18.75,73774.0,8.47,8.13,8.27,0,*48
1496750459.2,6529,18.81,73782.5,8.47,8.37,8.51,0,*4E
1496750460.4,6530,18.75,73772.3,8.53,8.59,8.69,0,*40
1496750461.62,6531,18.75,73772.8,8.55,8.71,8.69,0,*4D
1496750462.84,6532,18.75,73774.5,8.55,9.03,9.11,0,*44
1496750464.04,6533,18.75,73778.8,8.63,9.29,9.33,0,*48
1496750465.25,6534,18.75,73774.5,8.65,9.47,9.53,0,*47
1496750466.47,6535,18.75,73780.8,8.71,8.71,8.83,0,*4B
1496750467.66,6536,18.75,73780.8,8.73,8.45,8.55,0,*46
1496750468.88,6537,18.75,73776.5,8.75,7.65,7.79,0,*4D
1496750470.11,6538,18.75,73778.3,8.79,7.73,7.83,0,*4C
1496750471.28,6539,18.75,73776.0,8.79,8.01,8.15,0,*47
1496750472.51,6540,18.75,73774.3,8.81,7.59,7.69,0,*48
1496750473.75,6541,18.75,73770.5,8.81,5.85,5.85,0,*4A
1496750474.97,6542,18.75,73772.8,8.85,6.69,6.75,0,*40
1496750476.19,6543,18.75,73770.5,8.87,7.11,7.23,0,*4F
1496750477.35,6544,18.75,73764.0,8.87,7.29,7.33,0,*42
1496750478.57,6545,18.75,73752.0,8.87,6.39,6.53,0,*44
1496750479.78,6546,18.75,73732.5,8.87,6.17,6.43,0,*4A
1496750481.02,6547,18.75,73734.0,8.85,6.69,6.61,0,*40
1496750482.28,6548,18.81,73742.0,8.85,6.47,6.47,0,*47
1496750483.47,6549,18.75,73734.0,8.87,7.47,7.59,0,*4B
1496750484.66,6550,18.75,73736.8,8.87,8.45,8.47,0,*4E
1496750485.89,6551,18.75,73748.0,8.89,8.27,8.37,0,*42
1496750487.11,6552,18.75,73760.8,8.91,7.69,7.73,0,*42
1496750488.35,6553,18.75,73762.8,8.93,7.69,7.83,0,*4E
1496750489.54,6554,18.75,73766.0,8.95,8.41,8.65,0,*4D
1496750490.75,6555,18.81,73766.5,8.97,8.19,8.45,0,*41
1496750491.94,6556,18.75,73764.3,8.99,7.59,8.13,0,*44
1496750493.1,6557,18.75,73760.5,9.03,8.01,8.79,0,*49
1496750494.33,6558,18.75,73758.5,9.09,8.29,9.01,0,*48
1496750495.53,6559,18.81,73758.5,9.13,8.23,9.15,0,*4D
1496750496.77,6560,18.75,73754.3,9.15,8.51,9.19,0,*48
1496750497.97,6561,18.75,73756.5,9.17,8.37,9.03,0,*40
1496750499.16,6562,18.75,73762.5,9.21,9.67,10.03,0,*7A
1496750500.36,6563,18.75,73756.5,9.25,9.43,9.81,0,*4B
1496750501.56,6564,18.75,73762.8,9.33,9.11,9.47,0,*46
1496750502.78,6565,18.75,73766.0,9.35,8.05,8.59,0,*4B
1496750504.03,6566,18.75,73762.8,9.41,8.55,8.71,0,*44
1496750505.23,6567,18.75,73766.5,9.45,8.05,8.27,0,*47
1496750506.43,6568,18.75,73756.3,9.47,7.27,8.19,0,*48
1496750507.68,6569,18.75,73754.8,9.53,6.47,8.41,0,*46
1496750508.9,6570,18.75,73760.0,9.57,7.23,8.69,0,*43
1496750510.1,6571,18.75,73766.0,9.61,5.99,6.97,0,*4B
1496750511.3,6572,18.75,73754.3,9.67,3.79,5.29,0,*40
1496750512.55,6573,18.81,73754.3,9.69,2.01,4.05,0,*4E
1496750513.77,6574,18.75,73746.8,9.69,-0.33,2.39,0,*5E
1496750514.96,6575,18.75,73752.0,9.67,1.05,3.67,0,*42
1496750516.22,6576,18.75,73750.3,9.69,4.05,4.93,0,*46
1496750517.42,6577,18.75,73756.0,9.69,4.37,3.63,0,*4E
1496750518.64,6578,18.81,73752.3,9.69,4.33,3.75,0,*42
1496750519.86,6579,18.75,73748.8,9.67,3.67,3.11,0,*49
1496750521.09,6580,18.75,73754.3,9.67,3.11,2.13,0,*4D
1496750522.3,6581,18.75,73756.8,9.63,2.85,2.55,0,*46
1496750523.52,6582,18.75,73762.5,9.59,2.39,0.79,0,*77
1496750524.74,6583,18.75,73756.3,9.59,2.21,1.85,0,*4D
1496750525.94,6584,18.81,73760.0,9.59,2.27,2.85,0,*4F
1496750527.11,6585,18.75,73760.5,9.59,2.27,3.29,0,*49
1496750528.33,6586,18.75,73762.0,9.61,3.45,4.89,0,*49
1496750529.55,6587,18.75,73762.5,9.61,2.89,4.89,0,*49
1496750530.79,6588,18.75,73756.3,9.61,2.77,5.77,0,*47
1496750531.99,6589,18.81,73762.8,9.61,3.81,6.07,0,*4A
1496750533.21,6590,18.75,73758.0,9.63,3.37,4.75,0,*4A
1496750534.39,6591,18.75,73758.0,9.59,3.89,5.29,0,*4F
1496750535.56,6592,18.75,73762.8,9.59,5.07,5.99,0,*47
1496750536.76,6593,18.75,73756.8,9.59,6.33,6.53,0,*47
1496750537.96,6594,18.75,73756.0,9.61,4.89,5.11,0,*4D
1496750539.16,6595,18.81,73760.8,9.59,5.63,5.89,0,*43
1496750540.36,6596,18.75,73750.3,9.59,4.85,4.97,0,*47
1496750541.55,6597,18.75,73762.0,9.59,6.11,5.73,0,*42
1496750542.76,6598,18.81,73762.0,9.59,5.19,4.93,0,*49
1496750543.95,6599,18.75,73758.0,9.57,5.63,5.41,0,*45
1496750545.17,6600,18.75,73756.8,9.57,4.93,4.81,0,*45
1496750546.37,6601,18.75,73758.3,9.55,6.87,7.09,0,*42
1496750547.56,6602,18.75,73760.5,9.59,7.73,8.15,0,*45
1496750548.79,6603,18.75,73762.8,9.61,7.87,8.09,0,*49
1496750549.98,6604,18.75,73758.3,9.63,8.19,8.33,0,*4D
1496750551.18,6605,18.75,73754.8,9.67,7.33,7.69,0,*4F
1496750552.35,6606,18.75,73758.5,9.71,8.09,8.61,0,*4A
1496750553.54,6607,18.75,73764.8,9.73,7.97,8.65,0,*45
1496750554.73,6608,18.75,73766.5,9.79,8.01,9.11,0,*42
1496750555.93,6609,18.75,73756.3,9.83,7.27,9.03,0,*4E
1496750557.13,6610,18.75,73756.8,9.87,6.17,8.19,0,*4A
1496750558.3,6611,18.75,73756.3,9.91,5.37,7.55,0,*4A
1496750559.51,6612,18.75,73756.8,9.93,6.03,8.15,0,*44
1496750560.75,6613,18.75,73760.3,9.95,6.51,8.55,0,*40
1496750561.99,6614,18.75,73762.5,10.01,5.89,7.87,0,*74
1496750563.19,6615,18.75,73758.0,10.03,4.59,7.05,0,*71
1496750564.44,6616,18.81,73762.0,10.07,4.63,7.19,0,*72
1496750565.65,6617,18.75,73756.3,10.11,4.07,6.75,0,*7D
1496750566.88,6618,18.75,73762.3,10.15,2.59,5.67,0,*7B
1496750568.12,6619,18.81,73764.8,10.15,1.97,5.33,0,*7A
1496750569.35,6620,18.75,73762.0,10.15,1.41,4.93,0,*70
1496750570.58,6621,18.75,73764.5,10.15,0.95,4.41,0,*46
1496750571.75,6622,18.75,73762.5,10.17,0.97,4.27,0,*45
1496750573.0,6623,18.75,73760.0,10.15,0.95,4.59,0,*4D
1496750574.22,6624,18.75,73766.5,10.11,0.79,3.85,0,*4A
1496750575.43,6625,18.75,73762.3,10.09,0.67,3.53,0,*46
1496750576.65,6626,18.75,73756.5,10.05,0.95,3.79,0,*4C
1496750577.86,6627,18.75,73762.8,10.03,2.61,5.01,0,*7B
1496750579.06,6628,18.75,73756.5,10.01,4.45,5.95,0,*7B
1496750580.28,6629,18.75,73756.3,10.01,5.63,6.43,0,*77
1496750581.48,6630,18.75,73756.3,9.99,5.73,6.25,0,*47
1496750582.66,6631,18.81,73758.8,10.03,4.85,5.07,0,*76
1496750583.85,6632,18.75,73754.3,9.99,5.33,5.55,0,*45
1496750585.08,6633,18.75,73754.3,9.99,6.13,6.35,0,*40
1496750586.3,6634,18.75,73754.8,9.95,6.17,6.17,0,*4F
1496750587.5,6635,18.81,73752.8,9.93,4.85,4.85,0,*48
1496750588.69,6636,18.75,73756.8,9.93,4.85,4.85,0,*4B
1496750589.9,6637,18.75,73754.3,9.89,5.15,5.07,0,*42
1496750591.12,6638,18.75,73754.3,9.91,5.89,5.89,0,*47
1496750592.32,6639,18.75,73754.3,9.89,5.41,5.59,0,*46
1496750593.55,6640,18.75,73754.0,9.85,4.59,4.85,0,*4C
1496750594.72,6641,18.81,73758.0,9.83,5.19,5.45,0,*43
1496750595.92,6642,18.75,73754.5,9.83,5.11,5.51,0,*4D
1496750597.11,6643,18.75,73752.3,9.81,5.15,5.49,0,*43
1496750598.3,6644,18.75,73756.0,9.81,4.81,5.29,0,*4E
1496750599.49,6645,18.75,73756.3,9.83,5.29,5.81,0,*4C
1496750600.69,6646,18.75,73754.8,9.81,4.45,4.85,0,*43
1496750601.94,6647,18.81,73756.0,9.77,4.67,5.01,0,*46
1496750603.13,6648,18.75,73754.5,9.79,5.59,5.73,0,*4E
1496750604.32,6649,18.81,73758.8,9.77,4.57,4.41,0,*4E
1496750605.52,6650,18.81,73754.0,9.71,2.43,2.35,0,*46
1496750606.73,6651,18.75,73742.5,9.67,2.85,2.69,0,*43
1496750607.96,6652,18.81,73742.0,9.65,3.15,2.91,0,*4D
1496750609.18,6653,18.81,73742.0,9.59,2.13,1.97,0,*41
1496750610.43,6654,18.81,73740.0,9.57,3.49,3.41,0,*4F
1496750611.65,6655,18.75,73740.0,9.55,3.79,3.79,0,*44
1496750612.84,6656,18.75,73750.3,9.55,3.25,3.37,0,*44
1496750614.07,6657,18.75,73742.8,9.49,2.59,2.61,0,*40
1496750615.32,6658,18.75,73740.8,9.45,3.03,3.15,0,*4F
1496750616.52,6659,18.75,73738.8,9.43,2.95,3.19,0,*4A
1496750617.75,6660,18.75,73740.0,9.41,3.11,3.25,0,*40
1496750618.96,6661,18.81,73752.0,9.37,3.45,3.53,0,*40
1496750620.17,6662,18.75,73744.8,9.35,2.43,2.31,0,*43
1496750621.4,6663,18.81,73744.0,9.27,2.01,1.79,0,*48
1496750622.61,6664,18.81,73748.0,9.23,1.75,1.47,0,*46
1496750623.86,6665,18.81,73736.0,9.19,1.71,1.37,0,*4D
1496750625.08,6666,18.75,73730.8,9.15,1.41,1.09,0,*4C
1496750626.33,6667,18.75,73744.3,9.11,1.71,1.47,0,*40
1496750627.56,6668,18.75,73736.8,9.05,2.25,1.93,0,*41
1496750628.78,6669,18.81,73744.3,9.01,1.79,1.51,0,*40
1496750630.02,6670,18.81,73736.3,8.97,2.05,1.59,0,*46
1496750631.27,6671,18.81,73738.5,8.97,1.13,0.83,0,*75
1496750632.46,6672,18.81,73734.3,8.91,1.75,1.47,0,*49
1496750633.65,6673,18.75,73728.5,8.87,2.69,2.35,0,*47
1496750634.82,6674,18.75,73732.0,8.87,3.25,2.99,0,*4F
1496750636.01,6675,18.81,73730.3,8.85,3.59,3.55,0,*46
1496750637.2,6676,18.81,73724.5,8.85,4.19,4.19,0,*49
1496750638.42,6677,18.81,73730.0,8.85,4.41,4.31,0,*4F
1496750639.67,6678,18.81,73744.0,8.85,3.71,3.49,0,*4C
1496750640.9,6679,18.75,73748.8,8.81,3.81,3.71,0,*4D
1496750642.1,6680,18.81,73748.5,8.79,4.01,3.81,0,*4C
1496750643.3,6681,18.81,73748.5,8.79,4.63,4.53,0,*41
1496750644.47,6682,18.81,73738.5,8.79,4.33,4.23,0,*40
1496750645.67,6683,18.75,73734.3,8.79,3.55,3.41,0,*45
1496750646.89,6684,18.75,73732.5,8.75,3.29,3.07,0,*47
1496750648.11,6685,18.81,73726.8,8.75,3.25,3.07,0,*4A
1496750649.31,6686,18.81,73720.8,8.73,2.91,2.73,0,*43
1496750650.53,6687,18.75,73710.0,8.73,2.73,2.51,0,*4E
1496750651.77,6688,18.75,73704.5,8.67,1.59,1.29,0,*43
1496750653.02,6689,18.75,73704.8,8.63,1.17,0.83,0,*7D
1496750654.25,6690,18.75,73706.0,8.57,1.13,0.87,0,*72
1496750655.47,6691,18.75,73702.8,8.55,1.41,1.17,0,*4E
1496750656.69,6692,18.81,73698.5,8.49,1.43,1.29,0,*4F
1496750657.92,6693,18.75,73696.0,8.49,1.33,1.17,0,*44
1496750659.13,6694,18.81,73696.0,8.45,3.07,2.95,0,*43
1496750660.31,6695,18.75,73694.8,8.45,2.95,2.61,0,*43
1496750661.49,6696,18.75,73702.8,8.45,4.27,4.23,0,*4F
1496750662.66,6697,18.75,73704.3,8.45,4.49,4.37,0,*43
1496750663.83,6698,18.75,73706.8,8.45,4.33,4.27,0,*40
1496750665.08,6699,18.81,73700.3,8.41,3.79,3.71,0,*48
1496750666.28,6700,18.75,73688.3,8.41,4.27,4.15,0,*40
1496750667.48,6701,18.75,73692.0,8.41,4.27,4.15,0,*41
1496750668.68,6702,18.81,73702.3,8.41,3.93,3.81,0,*40
1496750669.9,6703,18.81,73710.3,8.41,3.81,3.71,0,*4D
1496750671.13,6704,18.81,73716.0,8.41,3.07,2.95,0,*4F
1496750672.34,6705,18.81,73710.8,8.39,2.85,2.73,0,*42
1496750673.54,6706,18.75,73696.3,8.39,2.95,2.89,0,*45
1496750674.76,6707,18.75,73702.5,8.33,3.37,3.25,0,*40
1496750675.98,6708,18.81,73702.8,8.33,2.77,2.65,0,*4F
1496750677.22,6709,18.81,73696.0,8.33,2.81,2.69,0,*4B
1496750678.46,6710,18.75,73694.5,8.29,2.77,2.73,0,*4A
1496750679.69,6711,18.81,73688.3,8.29,3.79,3.89,0,*40
1496750680.91,6712,18.75,73696.3,8.27,4.31,4.31,0,*42
1496750682.11,6713,18.81,73706.8,8.27,4.05,3.93,0,*4B
1496750683.36,6714,18.75,73702.5,8.29,3.49,3.37,0,*43
1496750684.61,6715,18.75,73714.0,8.29,4.67,4.75,0,*48
1496750685.85,6716,18.81,73718.5,8.29,5.55,5.55,0,*48
1496750687.02,6717,18.81,73720.3,8.31,5.41,5.33,0,*45
1496750688.18,6718,18.81,73730.3,8.31,5.49,5.49,0,*4F
1496750689.37,6719,18.81,73722.0,8.33,5.49,5.37,0,*45
1496750690.58,6720,18.81,73738.8,8.35,5.55,5.55,0,*40
1496750691.78,6721,18.81,73744.0,8.35,4.85,4.71,0,*4A
1496750692.96,6722,18.81,73746.0,8.39,5.67,5.67,0,*4E
1496750694.18,6723,18.75,73744.5,8.41,6.21,6.13,0,*41
1496750695.41,6724,18.81,73742.3,8.47,6.43,6.29,0,*4D
1496750696.61,6725,18.81,73742.3,8.47,6.33,6.29,0,*4B
1496750697.85,6726,18.75,73744.8,8.49,6.51,6.47,0,*4A
1496750699.1,6727,18.81,73748.5,8.51,6.13,5.93,0,*4E
1496750700.31,6728,18.81,73758.8,8.55,5.29,4.79,0,*4A
1496750701.53,6729,18.81,73760.5,8.55,5.29,4.93,0,*4F
1496750702.75,6730,18.81,73764.0,8.57,5.27,4.97,0,*4F
1496750704.01,6731,18.81,73768.3,8.59,4.93,4.71,0,*46
1496750705.25,6732,18.81,73772.5,8.59,4.01,3.79,0,*41
1496750706.45,6733,18.81,73776.0,8.57,4.11,3.97,0,*4F
1496750707.67,6734,18.81,73786.8,8.59,3.33,2.99,0,*4E
1496750708.9,6735,18.81,73786.0,8.57,2.43,2.09,0,*4E
1496750710.08,6736,18.75,73776.3,8.53,2.99,2.61,0,*40
1496750711.32,6737,18.81,73764.5,8.51,2.51,1.97,0,*4D
1496750712.5,6738,18.81,73748.3,8.49,2.99,2.65,0,*41
1496750713.69,6739,18.81,73738.5,8.49,3.59,3.11,0,*4F
1496750714.91,6740,18.81,73726.8,8.51,4.19,3.71,0,*4D
1496750716.13,6741,18.81,73722.3,8.51,3.53,2.99,0,*42
1496750717.35,6742,18.81,73714.3,8.49,2.89,2.47,0,*4D
1496750718.57,6743,18.81,73706.3,8.47,2.21,1.79,0,*4E
1496750719.82,6744,18.81,73694.5,8.47,2.43,2.01,0,*41
1496750721.05,6745,18.81,73684.5,8.41,2.17,1.83,0,*4E
1496750722.21,6746,18.81,73684.8,8.39,2.61,2.27,0,*4E
1496750723.43,6747,18.75,73698.3,8.33,2.27,1.85,0,*4C
1496750724.65,6748,18.81,73712.3,8.33,2.27,1.71,0,*48
1496750725.89,6749,18.81,73712.5,8.29,0.21,-1.05,0,*58
1496750727.1,6750,18.81,73714.5,8.27,-0.81,-2.63,0,*7A
1496750728.3,6751,18.81,73714.0,8.23,-0.89,-2.23,0,*73
1496750729.52,6752,18.75,73704.8,8.21,0.91,0.05,0,*7D
1496750730.75,6753,18.75,73704.3,8.17,0.95,0.25,0,*4F
1496750731.97,6754,18.81,73698.0,8.17,1.43,1.05,0,*41
1496750733.22,6755,18.81,73688.8,8.11,1.33,0.75,0,*77
1496750734.46,6756,18.75,73680.5,8.11,1.25,0.79,0,*7F
1496750735.7,6757,18.81,73700.3,8.07,1.43,1.09,0,*4F
1496750736.9,6758,18.81,73700.0,8.09,1.97,1.75,0,*4C
1496750738.14,6759,18.81,73706.8,8.07,1.71,1.47,0,*4A
1496750739.36,6760,18.81,73710.3,8.07,2.31,2.01,0,*46
1496750740.6,6761,18.75,73712.0,8.03,1.89,1.25,0,*46
1496750741.84,6762,18.81,73714.0,8.03,1.89,1.43,0,*45
1496750743.06,6763,18.81,73728.3,8.03,2.35,1.85,0,*4A
1496750744.28,6764,18.81,73726.5,8.01,2.69,1.97,0,*45
1496750745.47,6765,18.81,73732.3,8.01,2.31,1.59,0,*4B
1496750746.7,6766,18.81,73730.8,7.99,1.59,0.95,0,*7A
1496750747.95,6767,18.81,73734.0,7.95,2.01,1.43,0,*43
1496750749.15,6768,18.81,73730.3,7.93,1.79,1.17,0,*47
1496750750.34,6769,18.75,73720.5,7.89,1.41,0.87,0,*7E
1496750751.57,6770,18.75,73728.3,7.89,1.85,1.47,0,*43
1496750752.82,6771,18.81,73736.8,7.87,1.97,1.59,0,*40
1496750754.04,6772,18.81,73734.0,7.85,2.05,1.67,0,*44
1496750755.28,6773,18.81,73736.3,7.83,2.01,1.63,0,*43
1496750756.52,6774,18.81,73732.3,7.83,2.13,1.55,0,*42
1496750757.74,6775,18.81,73740.3,7.79,2.43,2.01,0,*41
1496750758.94,6776,18.81,73732.3,7.79,2.61,2.25,0,*44
1496750760.16,6777,18.81,73740.3,7.79,3.03,2.69,0,*48
1496750761.38,6778,18.81,73746.8,7.77,2.99,2.77,0,*44
1496750762.6,6779,18.75,73744.0,7.75,2.81,2.55,0,*4E
1496750763.85,6780,18.81,73732.0,7.77,2.81,2.59,0,*46
1496750765.04,6781,18.81,73716.0,7.75,3.11,2.99,0,*41
1496750766.24,6782,18.81,73716.0,7.75,3.03,2.91,0,*49
1496750767.49,6783,18.81,73712.0,7.73,3.07,2.85,0,*4F
1496750768.7,6784,18.75,73712.8,7.71,2.77,2.73,0,*45
1496750769.92,6785,18.81,73718.3,7.67,2.59,2.43,0,*4C
1496750771.12,6786,18.81,73720.0,7.67,2.95,2.81,0,*41
1496750772.34,6787,18.75,73718.5,7.67,2.81,2.59,0,*40
1496750773.57,6788,18.81,73730.8,7.65,2.99,2.81,0,*41
1496750774.79,6789,18.81,73740.8,7.63,3.71,3.53,0,*4F
1496750775.95,6790,18.81,73730.0,7.63,3.81,3.63,0,*4B
1496750777.17,6791,18.81,73740.8,7.63,3.71,3.53,0,*46
1496750778.36,6792,18.81,73726.0,7.63,3.25,3.11,0,*42
1496750779.58,6793,18.81,73722.5,7.61,3.19,2.95,0,*43
1496750780.81,6794,18.81,73718.3,7.61,3.11,2.95,0,*4C
1496750782.07,6795,18.81,73704.8,7.61,3.07,2.89,0,*47
1496750783.28,6796,18.81,73704.8,7.59,3.37,3.19,0,*44
1496750784.46,6797,18.81,73714.0,7.59,2.99,2.95,0,*45
1496750785.68,6798,18.81,73716.3,7.59,3.45,3.37,0,*43
1496750786.9,6799,18.81,73722.5,7.59,3.79,3.67,0,*48
1496750788.12,6800,18.81,73720.0,7.57,4.11,4.05,0,*43
1496750789.35,6801,18.81,73726.3,7.59,3.79,3.79,0,*49
1496750790.57,6802,18.81,73718.8,7.57,3.85,3.75,0,*4B
1496750791.79,6803,18.81,73720.8,7.57,3.85,3.67,0,*49
1496750793.01,6804,18.81,73730.5,7.59,2.85,2.77,0,*41
1496750794.22,6805,18.81,73734.8,7.59,3.45,3.23,0,*4D
1496750795.47,6806,18.81,73732.0,7.57,3.67,3.53,0,*47
1496750796.69,6807,18.81,73740.0,7.57,3.53,3.29,0,*4C
1496750797.89,6808,18.75,73742.5,7.55,3.81,3.75,0,*47
1496750799.07,6809,18.81,73746.5,7.55,4.53,4.23,0,*4A
1496750800.27,6810,18.81,73744.3,7.57,4.15,3.89,0,*45
1496750801.47,6811,18.81,73744.8,7.55,3.63,3.49,0,*4C
1496750802.68,6812,18.81,73744.8,7.55,3.29,3.15,0,*48
1496750803.88,6813,18.81,73744.5,7.55,3.37,3.29,0,*49
1496750805.08,6814,18.75,73744.5,7.55,3.75,3.63,0,*46
1496750806.28,6815,18.81,73744.8,7.55,3.25,3.15,0,*43
1496750807.51,6816,18.81,73744.3,7.53,3.25,3.11,0,*42
1496750808.74,6817,18.75,73748.8,7.53,4.01,4.07,0,*42
1496750809.97,6818,18.81,73746.3,7.53,4.31,4.19,0,*41
1496750811.17,6819,18.81,73744.8,7.51,4.05,3.81,0,*43
1496750812.4,6820,18.81,73754.0,7.51,3.67,3.45,0,*42
1496750813.57,6821,18.81,73754.5,7.51,3.81,3.59,0,*46
1496750814.76,6822,18.81,73752.8,7.51,4.19,3.97,0,*41
1496750815.94,6823,18.81,73754.8,7.51,4.07,3.85,0,*4C
1496750817.12,6824,18.81,73758.8,7.51,4.07,3.93,0,*4C
1496750818.31,6825,18.81,73760.8,7.49,4.27,4.11,0,*4B
1496750819.51,6826,18.81,73756.0,7.51,4.63,4.53,0,*47
1496750820.71,6827,18.81,73756.8,7.51,5.01,4.89,0,*44
1496750821.9,6828,18.81,73760.0,7.51,5.29,5.27,0,*44
1496750823.1,6829,18.81,73762.3,7.53,5.41,5.41,0,*49
1496750824.32,6830,18.81,73760.0,7.53,5.51,5.49,0,*48
1496750825.55,6831,18.81,73766.3,7.55,5.05,5.05,0,*46
1496750826.76,6832,18.81,73760.5,7.57,5.19,5.23,0,*4E
1496750828.01,6833,18.81,73762.5,7.57,4.97,4.93,0,*42
1496750829.26,6834,18.75,73762.5,7.57,5.05,4.93,0,*4F
1496750830.47,6835,18.81,73760.0,7.57,5.19,5.15,0,*4C
1496750831.64,6836,18.81,73758.5,7.59,5.41,5.29,0,*43
1496750832.81,6837,18.81,73760.8,7.59,4.89,4.89,0,*4C
1496750834.03,6838,18.81,73758.0,7.61,4.85,4.79,0,*4B
1496750835.29,6839,18.75,73754.3,7.61,5.01,4.97,0,*47
1496750836.51,6840,18.81,73760.5,7.59,4.79,4.75,0,*40
1496750837.71,6841,18.81,73756.8,7.59,4.67,4.53,0,*4A
1496750838.92,6842,18.81,73760.0,7.61,5.11,5.19,0,*4D
1496750840.11,6843,18.75,73758.5,7.61,5.49,5.45,0,*48
1496750841.28,6844,18.81,73758.3,7.59,5.33,5.29,0,*43
1496750842.51,6845,18.75,73756.8,7.61,5.07,5.01,0,*44
1496750843.67,6846,18.81,73752.5,7.63,5.45,5.45,0,*43
1496750844.91,6847,18.81,73752.8,7.65,5.51,5.51,0,*44
1496750846.09,6848,18.81,73754.5,7.63,5.63,5.59,0,*44
1496750847.31,6849,18.81,73754.8,7.65,5.95,5.93,0,*4C
1496750848.52,6850,18.81,73752.3,7.67,5.85,5.89,0,*4C
1496750849.75,6851,18.75,73748.8,7.67,5.89,5.89,0,*41
1496750850.96,6852,18.81,73752.5,7.67,5.77,5.85,0,*4F
1496750852.13,6853,18.81,73752.0,7.71,5.67,5.71,0,*43
1496750853.34,6854,18.81,73752.3,7.71,5.51,5.55,0,*47
1496750854.52,6855,18.81,73746.8,7.71,5.67,5.71,0,*45
1496750855.75,6856,18.81,73744.8,7.73,5.81,5.77,0,*4A
1496750856.96,6857,18.75,73746.5,7.73,6.03,6.03,0,*42
1496750858.18,6858,18.81,73746.5,7.75,6.39,6.39,0,*4B
1496750859.35,6859,18.81,73736.5,7.75,6.29,6.33,0,*41
1496750860.57,6860,18.75,73732.5,7.79,6.57,6.65,0,*4D
1496750861.82,6861,18.81,73740.5,7.77,6.61,6.65,0,*47
1496750863.04,6862,18.81,73738.5,7.79,6.57,6.65,0,*4F
1496750864.28,6863,18.81,73744.8,7.83,6.61,6.73,0,*49
1496750865.53,6864,18.81,73740.3,7.83,6.35,6.39,0,*41
1496750866.77,6865,18.75,73738.3,7.83,5.77,5.77,0,*4C
1496750867.96,6866,18.81,73746.0,7.83,5.41,5.45,0,*4B
1496750869.18,6867,18.81,73742.3,7.85,5.93,6.13,0,*43
1496750870.39,6868,18.75,73750.8,7.85,5.23,5.27,0,*43
1496750871.56,6869,18.75,73736.3,7.85,4.15,4.15,0,*46
1496750872.79,6870,18.75,73740.8,7.83,4.75,4.85,0,*47
1496750873.99,6871,18.81,73748.8,7.83,5.11,5.11,0,*49
1496750875.24,6872,18.81,73746.8,7.83,4.75,4.71,0,*4E
1496750876.44,6873,18.81,73742.8,7.83,4.11,4.15,0,*4F
1496750877.67,6874,18.81,73742.8,7.83,4.11,4.31,0,*4E
1496750878.84,6875,18.75,73736.5,7.81,3.29,3.59,0,*48
1496750880.04,6876,18.75,73734.3,7.81,3.19,3.89,0,*45
1496750881.24,6877,18.75,73730.8,7.81,3.11,4.19,0,*42
1496750882.44,6878,18.81,73722.8,7.81,2.51,4.11,0,*40
1496750883.67,6879,18.81,73724.0,7.81,1.85,4.01,0,*4A
1496750884.9,6880,18.75,73722.0,7.81,2.05,4.63,0,*43
1496750886.09,6881,18.81,73722.3,7.83,2.27,5.29,0,*4F
1496750887.3,6882,18.81,73728.5,7.85,2.51,5.33,0,*40
1496750888.51,6883,18.81,73726.8,7.89,2.69,5.19,0,*4E
1496750889.7,6884,18.81,73734.8,7.89,2.59,4.19,0,*4B
1496750890.9,6885,18.75,73736.0,7.89,2.35,3.67,0,*4E
1496750892.13,6886,18.75,73724.0,7.89,2.43,3.49,0,*40
1496750893.37,6887,18.81,73716.0,7.85,1.55,2.51,0,*41
1496750894.6,6888,18.75,73710.0,7.85,2.09,3.03,0,*42
1496750895.85,6889,18.81,73714.5,7.83,1.29,2.05,0,*43
1496750897.05,6890,18.75,73702.8,7.81,1.55,2.35,0,*41
1496750898.25,6891,18.75,73712.0,7.79,2.51,2.99,0,*46
1496750899.47,6892,18.81,73722.0,7.79,2.81,3.07,0,*4E
1496750900.69,6893,18.75,73722.0,7.77,3.81,4.05,0,*45
1496750901.91,6894,18.81,73730.8,7.75,3.53,3.71,0,*4B
1496750903.13,6895,18.75,73728.3,7.75,3.33,3.45,0,*4B
1496750904.34,6896,18.75,73724.8,7.73,3.45,3.59,0,*42
1496750905.53,6897,18.75,73726.5,7.73,3.55,3.59,0,*42
1496750906.77,6898,18.81,73728.5,7.73,3.67,3.79,0,*4E
1496750907.99,6899,18.75,73726.0,7.71,3.37,3.49,0,*4B
1496750909.16,6900,18.75,73732.5,7.67,4.23,4.27,0,*40
1496750910.34,6901,18.75,73732.3,7.71,4.37,4.41,0,*43
1496750911.51,6902,18.75,73738.3,7.71,4.53,4.53,0,*41
1496750912.71,6903,18.81,73744.0,7.71,4.71,4.85,0,*4B
1496750913.89,6904,18.81,73750.3,7.71,4.37,4.37,0,*47
1496750915.08,6905,18.81,73748.8,7.73,4.49,4.37,0,*4D
1496750916.3,6906,18.81,73752.8,7.73,4.31,4.19,0,*4D
1496750917.52,6907,18.75,73752.3,7.71,3.71,3.49,0,*4F
1496750918.68,6908,18.75,73756.3,7.71,3.55,3.55,0,*4B
1496750919.93,6909,18.81,73762.0,7.73,3.71,3.71,0,*48
1496750921.1,6910,18.81,73756.0,7.75,3.85,3.93,0,*41
1496750922.31,6911,18.81,73756.0,7.75,3.49,3.37,0,*4E
1496750923.54,6912,18.81,73760.0,7.75,3.41,3.41,0,*44
1496750924.74,6913,18.81,73762.8,7.75,3.71,3.93,0,*49
1496750925.94,6914,18.81,73764.5,7.75,4.07,4.31,0,*47
1496750927.13,6915,18.81,73766.0,7.77,4.57,4.89,0,*42
1496750928.36,6916,18.81,73766.0,7.77,4.93,5.11,0,*49
1496750929.54,6917,18.75,73760.3,7.79,5.07,5.11,0,*4A
1496750930.73,6918,18.81,73764.3,7.79,5.67,5.77,0,*43
1496750931.94,6919,18.81,73760.8,7.79,5.77,5.85,0,*4E
1496750933.14,6920,18.75,73758.0,7.83,5.19,5.33,0,*44
1496750934.33,6921,18.81,73762.8,7.83,5.29,5.63,0,*43
1496750935.53,6922,18.75,73764.5,7.87,5.37,5.67,0,*4F
1496750936.74,6923,18.75,73764.0,7.87,4.85,5.11,0,*47